#timestamp,LO_Frequency,Hit 
1499403615.5,286047044.5,N
1499403635.4,286047046.3,N
1499403655.2,286047045.4,N
1499403675.0,286047044.7,N
1499403675.9,286047044.7,N
1499403695.8,286047046.7,N
1499403715.6,286047049.0,N
1499403735.4,286047047.8,N
1499403755.3,286047050.4,N
1499403775.1,286047047.7,N
1499403776.0,286047047.7,N
1499403795.8,286047048.5,N
1499403815.7,286047052.0,N
1499403835.5,286047052.2,N
1499403855.3,286047049.6,N
1499403875.2,286047050.2,N
1499403895.9,286047050.3,N
1499403915.7,286047049.4,N
1499403935.5,286047050.6,N
1499403955.4,286047049.5,N
1499403975.2,286047050.1,N
1499403995.0,286047050.6,N
1499403995.9,286047050.6,N
1499404015.8,286047050.4,N
1499404035.6,286047049.1,N
1499404055.4,286047046.1,N
1499404075.3,286047049.0,N
1499404095.1,286047048.6,N
1499404115.8,286047049.1,N
1499404135.7,286047049.1,N
1499404155.5,286047048.0,N
1499404175.3,286047047.7,N
1499404195.2,286047046.1,N
1499404215.9,286047048.1,N
1499404235.7,286047048.7,N
1499404255.6,286047046.5,N
1499404275.4,286047048.4,N
1499404295.2,286047048.5,N
1499404315.0,286047048.3,N
1499404316.0,286047048.3,N
1499404335.8,286047050.6,N
1499404355.6,286047050.6,N
1499404375.4,286047048.9,N
1499404395.3,286047048.5,N
1499404415.1,286047050.6,N
1499404435.8,286047050.3,N
1499404455.7,286047050.6,N
1499404475.5,286047050.2,N
1499404495.3,286047050.7,N
1499404515.2,286047049.6,N
1499404535.9,286047052.4,N
1499404555.7,286047048.3,N
1499404575.6,286047050.8,N
1499404595.4,286047048.0,N
1499404615.2,286047047.7,N
1499404635.0,286047047.9,N
1499404636.0,286047047.9,N
1499404655.8,286047049.5,N
1499404675.6,286047050.5,N
1499404695.4,286047049.5,N
1499404715.3,286047050.5,N
1499404735.1,286047049.4,N
1499404755.8,286047050.7,N
1499404775.7,286047048.2,N
1499404795.5,286047046.8,N
1499404815.3,286047044.5,N
1499404835.2,286047046.3,N
1499404855.9,286047044.6,N
1499404875.7,286047045.4,N
1499404895.6,286047043.2,N
1499404915.4,286047044.9,N
1499404935.2,286047047.6,N
1499404955.0,286047046.7,N
1499404956.0,286047046.7,N
1499404975.8,286047046.2,N
1499404995.6,286047048.5,N
1499405015.4,286047048.1,N
1499405035.3,286047050.7,N
1499405055.1,286047050.1,N
1499405075.8,286047047.8,N
1499405095.7,286047049.6,N
1499405115.5,286047052.3,N
1499405135.3,286047046.6,N
1499405155.2,286047047.7,N
1499405175.9,286047048.9,N
1499405195.7,286047049.5,N
1499405215.6,286047053.8,N
1499405235.4,286047053.8,N
1499405255.2,286047057.2,N
1499405275.1,286047055.1,N
1499405276.0,286047055.1,N
1499405295.8,286047053.3,N
1499405315.6,286047051.5,N
1499405335.5,286047049.5,N
1499405355.3,286047051.0,N
1499405375.1,286047052.0,N
1499405395.8,286047049.9,N
1499405415.7,286047050.7,N
1499405435.5,286047048.1,N
1499405455.3,286047046.1,N
1499405475.2,286047047.9,N
1499405495.0,286047049.8,N
1499405495.9,286047049.8,N
1499405515.7,286047049.9,N
1499405535.6,286047050.4,N
1499405555.4,286047048.7,N
1499405575.2,286047050.0,N
1499405595.1,286047052.0,N
1499405596.0,286047052.0,N
1499405615.8,286047047.7,N
1499405635.6,286047047.9,N
1499405655.5,286047054.0,N
1499405675.3,286047051.9,N
1499405695.1,286047050.6,N
1499405715.9,286047051.6,N
1499405735.7,286047048.2,N
1499405755.5,286047049.2,N
1499405775.4,286047048.6,N
1499405795.2,286047050.8,N
1499405815.0,286047049.8,N
1499405815.9,286047049.8,N
1499405835.7,286047048.3,N
1499405855.6,286047048.8,N
1499405875.4,286047052.2,N
1499405895.2,286047051.4,N
1499405915.1,286047051.6,N
1499405916.0,286047051.6,N
1499405935.8,286047055.2,N
1499405955.6,286047056.5,N
1499405975.5,286047056.3,N
1499405995.3,286047059.0,N
1499406015.1,286047066.2,N
1499406035.9,286047064.1,N
1499406055.7,286047064.4,N
1499406075.5,286047064.8,N
1499406095.4,286047064.7,N
1499406115.2,286047065.2,N
1499406135.0,286047061.7,N
1499406135.9,286047061.7,N
1499406155.8,286047061.6,N
1499406175.6,286047059.2,N
1499406195.4,286047062.0,N
1499406215.3,286047059.7,N
1499406235.1,286047057.7,N
1499406236.0,286047057.7,N
1499406255.8,286047058.7,N
1499406275.7,286047058.3,N
1499406295.5,286047056.1,N
1499406315.3,286047057.6,N
1499406335.1,286047057.5,N
1499406355.9,286047056.6,N
1499406375.7,286047056.0,N
1499406395.5,286047059.2,N
1499406415.4,286047060.2,N
1499406435.2,286047061.8,N
1499406455.0,286047070.0,N
1499406455.9,286047070.0,N
1499406475.8,286047075.4,N
1499406495.6,286047078.9,N
1499406515.4,286047078.8,N
1499406535.3,286047075.9,N
1499406555.1,286047073.3,N
1499406556.0,286047073.3,N
1499406575.8,286047073.4,N
1499406595.7,286047073.5,N
1499406615.5,286047072.0,N
1499406635.3,286047073.2,N
1499406655.2,286047070.7,N
1499406675.9,286047067.4,N
1499406695.7,286047069.3,N
1499406715.6,286047067.9,N
1499406735.4,286047071.4,N
1499406755.2,286047069.8,N
1499406775.0,286047068.3,N
1499406775.9,286047068.3,N
1499406795.8,286047064.5,N
1499406815.6,286047060.9,N
1499406835.4,286047061.4,N
1499406855.3,286047063.1,N
1499406875.1,286047063.0,N
1499406895.8,286047061.9,N
1499406915.7,286047060.3,N
1499406935.5,286047062.0,N
1499406955.3,286047060.9,N
1499406975.2,286047059.3,N
1499406995.9,286047061.9,N
1499407015.7,286047059.0,N
1499407035.6,286047059.8,N
1499407055.4,286047059.2,N
1499407075.2,286047060.0,N
1499407095.0,286047059.8,N
1499407096.0,286047059.8,N
1499407115.8,286047059.0,N
1499407135.6,286047058.9,N
1499407155.4,286047059.1,N
1499407175.3,286047059.7,N
1499407195.1,286047059.0,N
